Wind_Speed
5 6 8 9 7 4 4 9 17 23 25 25 27 29 31 32 32 34 37 38 39 38 35 31 27 26 24 19 21 24 21 17 20 24 23 21 17 15 17 16 14 15 14 12 13 13 14 15 17 19 21 24 26 28 30 31 32 33 34 34 35 35 36 36 37 38 38 39 39 40 40 39 39 38 37 36 35 34 34 34 34 34 35 35 36 37
7 7 8 10 9 7 4 8 17 23 25 27 29 30 30 31 32 34 36 35 35 35 33 29 26 24 20 18 20 22 20 19 21 23 22 21 19 18 19 18 17 17 17 16 16 17 18 19 21 23 25 27 29 30 32 32 33 34 34 34 34 34 35 35 36 36 36 35 35 34 33 33 32 31 30 30 30 30 30 31 31 32 32 33 34 35
13 11 10 10 10 8 6 10 19 22 24 27 29 29 28 27 29 32 34 33 32 31 30 27 25 22 18 18 21 21 21 20 19 18 19 21 21 20 19 18 19 18 18 19 19 20 21 23 25 27 29 30 31 31 31 32 32 32 33 33 34 34 34 34 33 32 31 31 30 29 29 28 28 28 28 28 29 29 30 31 32 32 33 34 35 35
17 15 12 11 11 10 10 14 19 19 22 26 28 27 26 25 25 27 29 29 28 28 27 25 24 22 19 18 19 19 18 18 17 16 17 20 21 19 16 16 17 18 19 21 23 24 25 26 27 28 28 28 28 29 29 30 30 31 31 32 32 32 31 29 28 28 27 27 27 26 26 26 26 27 28 29 30 31 33 34 35 36 36 37 38 38
20 17 14 12 14 14 13 15 15 16 19 23 25 25 24 23 22 23 25 26 25 25 24 23 23 21 18 17 16 16 15 14 15 15 15 16 17 15 14 15 16 17 19 21 23 23 24 25 26 27 27 28 28 29 29 29 29 30 30 30 29 27 26 25 25 25 25 25 25 25 25 26 27 28 30 32 33 35 36 38 39 40 41 42 42 43
23 19 17 15 15 16 14 12 10 10 13 18 22 22 22 22 21 21 22 23 23 23 22 22 22 20 18 16 15 15 14 13 14 15 15 15 15 15 15 15 17 18 20 21 22 23 24 27 28 30 30 30 30 29 29 28 28 28 27 26 25 24 24 24 24 24 24 25 25 26 27 28 30 32 34 35 37 39 40 42 43 44 45 46 46 47
25 21 18 16 15 14 11 7 4 3 6 12 17 19 18 19 19 19 19 20 20 21 21 21 21 20 18 16 15 15 14 14 14 15 17 17 17 17 17 18 20 22 23 24 25 26 29 31 32 32 30 29 28 27 27 27 26 25 23 23 22 22 23 23 24 24 25 26 27 29 30 32 34 36 38 40 41 43 44 45 46 47 48 49 50 51
27 23 18 16 13 10 7 3 2 1 2 5 9 14 15 16 16 16 16 16 17 18 19 20 19 19 18 18 18 17 17 16 16 16 18 19 19 19 20 22 24 26 26 27 29 31 33 33 32 30 28 27 26 26 26 25 23 22 21 22 22 23 23 24 25 26 27 29 30 32 34 35 37 39 41 43 45 46 48 49 50 51 51 52 53 53
28 24 18 15 12 9 6 3 2 2 1 1 2 6 9 12 14 15 14 13 13 14 16 16 16 16 17 18 18 19 19 18 19 19 20 21 22 23 24 25 27 28 29 31 32 33 32 30 28 27 26 25 25 26 24 23 21 21 22 23 24 24 25 26 27 29 30 31 33 35 36 38 40 42 44 46 48 50 52 53 54 55 55 55 55 54
29 25 19 15 11 8 5 4 4 3 2 1 1 3 5 8 12 13 13 13 13 13 14 15 16 16 16 17 17 17 18 19 20 20 21 22 23 25 26 27 29 31 32 32 31 29 27 25 24 24 24 24 24 23 22 21 22 22 24 25 26 26 27 28 29 31 32 34 36 37 39 41 43 45 48 50 52 53 54 55 56 56 56 55 54 53
27 24 21 16 12 9 6 5 5 5 4 3 2 3 5 7 10 12 13 14 14 14 15 16 16 17 17 18 18 19 19 20 20 21 22 24 25 26 27 29 30 30 29 27 25 23 21 20 20 20 21 21 20 20 21 22 23 24 25 26 27 27 28 30 31 33 34 36 38 40 42 44 46 48 50 52 54 55 55 56 56 55 55 53 52 51
22 22 21 18 15 13 11 10 8 6 5 4 3 3 4 5 8 11 13 14 15 16 17 17 18 19 20 21 21 22 23 23 24 25 26 26 27 27 27 27 26 24 22 19 17 16 15 15 16 17 18 19 19 20 22 24 25 26 27 28 28 29 30 31 33 35 36 38 40 43 45 47 49 50 52 53 54 55 54 54 53 52 51 50 48 47
19 19 18 17 15 14 15 14 13 11 10 7 6 4 3 3 4 6 9 12 14 16 18 19 20 21 22 23 23 24 25 25 25 25 25 24 24 22 21 19 17 15 14 13 13 12 12 13 14 16 18 20 21 22 24 26 27 28 29 29 30 30 31 33 35 37 39 41 43 45 47 49 51 52 53 53 53 52 51 49 48 47 46 45 44 44
18 17 16 15 14 14 15 15 13 11 10 9 7 6 5 3 3 3 5 7 10 12 14 16 17 19 21 22 22 23 23 23 22 20 19 17 16 15 14 12 11 11 11 12 13 13 14 15 16 19 21 23 23 24 26 27 28 28 29 30 30 31 32 34 37 39 42 44 46 47 49 50 51 52 51 50 49 47 46 45 44 44 43 44 45 45
18 17 16 15 14 13 13 12 11 9 8 8 8 8 7 6 4 3 3 5 7 9 11 12 14 15 16 17 18 18 18 17 15 13 12 11 11 11 11 11 11 12 13 14 14 15 17 19 20 22 23 24 25 26 26 27 27 28 28 29 30 32 34 36 39 41 43 45 47 48 49 50 49 49 48 46 45 44 44 44 44 45 46 47 48 49
18 17 16 15 14 13 12 11 10 9 8 7 7 7 6 5 4 3 3 3 5 6 7 8 9 10 10 10 11 11 10 9 9 9 10 10 11 11 12 13 14 15 16 16 17 18 19 21 22 22 23 25 25 25 25 26 26 27 28 29 30 32 35 38 40 42 44 45 46 47 47 47 46 45 44 43 43 44 44 45 47 48 48 49 49 50
18 16 15 14 13 13 12 10 9 9 8 7 7 6 5 4 3 3 3 4 5 6 6 7 8 8 9 9 9 9 9 8 9 11 11 11 12 13 14 16 17 18 19 19 20 20 20 21 22 23 23 24 24 24 25 25 26 27 28 29 31 34 36 38 40 42 43 44 45 45 44 43 42 42 42 43 44 44 45 46 46 46 46 46 46 46
19 17 15 13 12 11 10 9 8 7 6 5 5 4 4 4 4 4 4 5 6 7 7 8 9 10 11 12 12 11 11 10 10 12 13 14 15 16 17 18 18 19 20 21 21 21 21 21 22 23 23 23 24 24 25 25 25 26 28 31 33 35 37 39 41 42 43 43 42 41 40 40 40 42 43 43 43 42 42 41 42 42 42 42 43 43
21 19 15 13 11 9 7 6 5 4 4 4 4 3 4 4 4 4 5 5 6 8 8 9 10 11 12 14 14 14 14 13 13 14 15 16 17 17 18 18 19 20 21 22 21 21 22 23 24 24 24 24 24 24 24 24 26 28 30 33 35 37 38 40 41 41 40 39 38 37 38 40 42 42 41 40 38 37 37 37 37 38 39 40 41 42
23 20 17 14 12 10 8 6 5 5 5 5 5 4 4 4 4 5 5 6 7 9 10 10 11 12 13 15 16 17 17 16 16 16 17 17 18 19 19 19 20 21 22 22 22 22 23 24 25 24 24 23 23 23 24 26 28 30 32 34 36 38 39 39 39 38 36 35 36 37 39 40 39 38 36 34 33 33 34 35 35 37 38 40 42 43
24 22 19 17 14 13 11 10 9 9 8 8 7 6 5 5 5 5 6 7 8 9 10 11 12 13 14 15 17 17 18 18 19 19 19 19 20 20 21 21 21 22 23 23 24 24 23 23 23 22 21 21 22 23 26 28 30 32 34 35 37 37 37 36 34 33 33 34 36 38 38 36 35 33 32 32 32 32 33 34 36 37 39 41 42 44
24 22 20 18 16 15 13 13 12 12 11 11 10 10 9 9 8 8 8 8 8 9 9 10 11 12 13 15 17 18 18 18 19 20 20 20 21 21 21 22 22 22 22 23 23 23 22 21 20 20 20 21 23 25 27 29 31 33 34 35 35 34 33 32 31 32 34 35 36 35 34 34 33 32 32 32 33 33 35 36 37 38 40 42 44 45
25 22 20 18 17 16 15 14 13 13 12 12 12 12 12 12 12 11 10 9 8 8 7 8 9 10 11 13 15 16 16 16 17 17 18 19 19 19 20 20 20 20 20 21 21 20 19 18 18 19 20 22 24 26 28 30 31 32 33 32 31 30 30 30 31 33 34 34 34 33 33 33 33 34 34 34 34 35 37 38 39 41 42 43 45 46
26 23 20 18 17 17 16 15 14 13 13 12 12 12 13 13 14 13 13 12 11 9 7 7 8 9 9 10 12 13 13 13 13 14 14 15 15 16 16 16 17 17 17 17 17 16 16 16 18 20 21 23 24 26 28 29 30 30 29 28 28 28 29 31 33 33 33 34 34 34 34 35 35 36 36 36 37 38 39 40 41 42 44 45 46 47
26 23 20 19 18 18 17 16 15 14 13 12 12 12 13 13 13 14 14 14 13 11 9 8 8 8 8 9 9 10 11 12 12 11 11 12 12 12 13 13 13 13 13 13 14 14 15 17 18 20 21 23 24 26 27 27 26 26 26 27 27 29 30 32 32 32 33 33 34 35 36 37 37 38 38 39 39 40 41 41 43 44 45 46 47 48
26 23 20 19 19 18 17 16 15 14 14 13 13 13 13 13 13 13 13 14 14 12 11 9 9 9 9 10 9 9 10 10 10 10 10 10 10 10 10 10 10 10 11 12 14 15 16 17 18 20 21 22 23 24 24 23 23 24 26 27 29 30 31 31 32 32 33 34 35 36 37 38 39 39 40 41 41 42 42 43 44 45 46 47 48 49
26 23 21 20 19 18 18 17 16 16 15 14 13 13 12 12 12 12 12 12 12 12 11 11 10 10 9 10 9 9 10 10 10 10 10 9 9 9 9 10 11 12 13 14 15 16 16 17 18 19 20 20 21 21 21 22 23 25 27 29 30 31 32 32 33 34 35 36 37 38 39 40 40 41 41 42 43 44 45 45 46 46 47 48 49 50
26 23 21 21 20 19 18 18 17 16 15 15 13 11 10 10 10 10 11 11 12 12 12 12 11 11 10 10 11 11 11 10 10 11 11 11 11 11 12 12 13 13 14 14 15 16 16 16 16 17 18 18 19 20 21 22 24 26 28 29 31 32 33 34 35 36 37 38 39 40 41 42 43 43 44 44 45 46 47 48 48 49 49 50 50 51
26 24 22 21 21 20 19 18 16 15 15 15 14 12 11 11 10 10 11 12 12 12 11 11 11 11 11 12 12 12 11 11 11 11 12 12 12 12 13 13 13 13 14 14 14 14 15 15 16 16 17 18 20 22 23 24 26 27 29 31 32 34 35 36 38 39 40 41 42 43 44 44 45 46 46 47 47 48 49 50 50 51 51 52 52 52
27 25 23 22 21 20 18 17 15 15 15 15 14 13 12 12 12 12 13 12 13 12 12 11 11 12 12 13 13 12 12 12 12 12 12 12 12 12 12 12 12 12 12 13 13 14 15 16 17 18 19 21 22 24 25 26 28 29 31 32 34 35 37 38 40 41 43 44 44 45 46 46 47 48 49 49 49 50 50 52 53 53 54 54 55 55
27 26 23 22 21 21 19 17 16 15 15 15 15 14 14 14 14 14 14 14 14 14 14 14 14 14 14 14 14 13 13 13 13 13 12 12 12 12 12 12 12 12 13 13 15 16 17 18 19 21 22 23 25 26 28 29 30 32 33 34 36 37 39 40 42 43 45 46 46 47 48 48 49 50 51 51 52 52 52 53 54 55 56 57 58 58
27 25 23 22 21 21 20 18 16 15 15 15 14 15 15 15 14 14 14 14 15 16 17 17 17 16 16 16 16 15 15 15 14 14 14 13 13 13 13 13 13 14 15 16 17 18 19 20 21 22 24 25 27 29 30 32 33 34 35 36 37 39 40 41 43 44 45 46 48 49 50 51 51 52 53 53 54 54 54 55 55 56 57 58 60 60
26 24 23 22 21 20 18 16 15 15 14 13 13 14 14 14 14 14 15 15 16 17 18 18 18 18 18 18 18 18 17 17 16 16 15 15 14 14 15 15 15 16 17 18 18 19 20 21 23 24 26 28 29 31 32 33 34 36 37 37 38 39 41 42 43 44 46 47 49 51 52 53 54 54 55 56 56 57 57 57 57 58 59 60 61 62
25 24 22 21 20 19 16 15 14 14 13 12 12 12 13 13 14 15 15 16 16 17 18 18 18 19 19 19 18 18 18 17 16 16 15 15 15 15 15 16 16 17 18 19 20 21 22 23 25 26 28 29 30 31 33 34 35 36 37 38 39 40 41 43 44 46 47 48 50 51 53 55 56 57 58 59 60 60 61 61 61 61 61 62 64 65
24 22 20 19 18 16 15 13 13 13 12 11 11 11 12 12 13 14 15 16 16 16 17 17 17 17 17 17 17 16 16 15 15 14 15 15 15 15 16 16 17 18 19 20 22 23 24 26 27 28 29 30 31 32 33 34 35 36 37 38 39 41 42 44 45 47 48 49 51 53 55 57 58 60 61 63 64 65 65 65 65 65 65 65 66 67
22 21 19 17 16 14 13 11 12 11 10 9 9 10 11 11 12 13 14 14 15 15 15 15 15 15 16 15 15 15 14 14 14 15 15 15 16 16 17 18 19 20 21 23 24 25 26 27 28 30 30 31 32 33 33 34 35 36 37 39 40 41 42 44 45 47 48 50 52 54 57 59 61 63 65 66 68 69 69 69 69 69 68 68 68 69
21 19 17 16 14 13 10 9 9 9 8 7 8 8 9 10 10 11 11 12 13 12 13 13 13 14 14 14 14 14 14 15 15 16 16 16 17 18 19 20 21 23 24 25 26 27 28 29 30 31 32 32 33 33 34 35 36 37 38 40 41 41 42 44 46 48 50 52 54 56 58 61 63 65 67 69 71 72 72 73 73 72 72 71 71 71
20 19 16 15 14 12 9 7 8 8 7 6 7 7 7 8 8 8 9 10 10 10 11 11 12 12 12 13 13 14 14 15 15 16 17 18 19 21 22 23 24 25 26 27 28 29 30 30 31 31 32 33 33 34 35 36 37 39 40 41 42 42 43 45 47 49 51 53 55 57 59 62 64 67 69 71 73 74 75 76 76 76 75 74 74 73
19 18 16 14 13 12 9 7 7 7 6 5 6 6 6 6 6 6 7 7 8 8 9 10 11 11 12 12 13 13 14 15 16 17 18 20 21 22 23 25 26 27 27 28 29 30 31 32 32 33 34 35 36 36 37 38 39 40 42 43 44 45 46 47 48 50 52 54 56 59 61 63 66 68 70 72 74 75 77 77 77 77 77 77 76 75
18 17 16 13 12 11 9 6 5 4 4 4 4 3 4 4 5 6 7 7 7 8 8 10 10 11 12 13 13 14 14 15 16 17 19 20 22 23 24 25 26 27 28 29 31 32 34 35 36 37 37 38 39 39 39 40 42 43 45 46 47 47 48 48 49 51 53 55 58 60 62 64 67 69 72 73 75 77 78 79 79 79 79 79 78 77
16 15 15 13 11 9 8 5 3 2 1 3 3 2 2 2 3 5 6 7 8 9 10 11 11 12 13 13 14 14 15 16 17 18 19 21 23 24 25 26 27 28 28 29 31 33 35 36 37 38 39 40 41 41 42 44 45 46 47 48 48 48 48 49 50 52 54 56 58 60 63 65 67 70 73 75 77 79 80 81 81 80 80 80 80 79
15 14 13 12 11 9 7 5 3 1 1 3 4 4 3 2 3 5 6 7 9 10 11 12 13 13 14 14 15 15 16 17 19 20 21 23 24 26 26 27 27 28 28 29 31 33 34 36 37 38 39 40 42 43 44 44 46 47 48 48 48 49 49 50 52 53 55 57 59 61 63 66 68 71 74 76 79 81 82 83 82 82 82 81 81 80
15 13 12 11 10 9 7 5 4 3 3 4 4 4 4 3 3 5 7 8 9 11 12 13 14 15 16 16 16 17 18 20 21 22 24 25 26 27 27 27 27 28 29 30 32 33 34 36 37 39 40 42 43 44 44 45 47 48 48 49 50 50 51 51 53 54 55 57 59 62 65 67 70 72 75 78 80 82 83 83 83 83 83 82 81 80
15 13 11 10 9 8 8 7 5 5 5 6 6 6 5 4 4 5 6 8 9 10 12 14 15 16 17 18 18 19 21 22 23 25 26 27 27 27 27 27 27 29 30 31 33 35 36 37 38 40 41 43 44 45 46 48 49 50 50 50 50 51 51 52 53 55 56 58 61 63 66 68 70 73 76 78 81 83 84 84 84 84 84 83 82 81
15 14 12 11 9 8 8 8 7 6 6 7 7 7 7 6 7 7 8 8 9 10 12 13 15 16 17 18 19 20 22 23 24 26 26 27 27 27 27 28 29 29 30 32 34 36 38 39 40 41 42 44 45 47 49 50 51 52 52 52 52 52 52 53 54 56 57 60 62 64 67 69 71 74 77 79 82 84 85 85 85 85 84 84 83 82
15 14 12 11 9 8 8 9 8 8 7 8 8 9 8 8 9 10 11 11 11 11 12 14 15 16 17 18 20 21 22 23 25 26 27 27 27 27 28 29 30 30 32 34 37 39 41 42 43 44 45 46 48 49 51 52 54 54 55 54 54 54 54 55 56 57 59 61 63 65 67 69 72 75 77 80 83 85 86 86 86 85 85 84 83 83
15 14 13 12 11 9 8 8 8 9 9 9 10 10 10 10 11 11 12 13 13 13 14 15 16 18 19 20 21 21 23 24 26 27 28 28 28 29 30 31 32 33 36 38 41 42 44 45 46 47 48 49 50 52 53 55 56 57 57 57 56 56 56 56 57 58 60 62 64 66 68 70 72 75 78 81 84 87 87 87 87 86 86 85 84 84
16 14 13 13 12 11 10 9 8 9 10 10 11 11 12 12 12 13 13 14 14 14 15 16 18 19 20 21 22 22 24 26 28 29 30 30 30 31 32 33 35 36 39 41 43 44 46 47 48 49 50 51 53 54 55 56 58 59 60 59 59 58 57 57 58 60 61 63 65 67 69 71 74 77 80 83 86 88 88 88 87 87 86 86 86 86
17 15 14 14 13 12 12 11 9 9 10 11 12 13 13 14 14 14 14 14 14 15 16 17 18 19 21 21 22 23 25 27 29 31 32 32 32 32 33 35 36 37 39 41 43 45 46 48 49 51 52 53 54 55 56 57 59 60 61 61 60 59 59 60 61 62 63 64 66 68 70 73 76 79 82 85 88 89 89 89 88 88 87 88 88 89
17 15 14 15 14 13 13 13 12 11 11 11 12 14 15 15 16 16 15 15 15 16 17 18 19 20 21 21 22 22 24 27 29 31 32 32 33 33 34 35 36 38 39 41 43 45 47 49 51 52 54 55 56 57 58 59 60 61 61 62 62 61 62 62 62 63 64 65 67 69 72 75 78 81 84 87 89 90 90 90 90 89 89 89 90 91
16 15 14 15 14 14 14 14 13 13 13 13 14 15 16 16 17 17 17 17 17 18 18 19 19 20 21 22 22 23 25 27 30 31 33 33 33 34 34 35 37 38 40 42 44 46 49 51 53 54 55 57 58 59 59 60 60 61 62 62 63 64 64 64 64 64 65 66 68 71 74 77 80 83 86 89 90 90 89 89 89 89 90 90 91 93
Wind_Direction
133 132 137 149 159 152 148 164 161 156 152 149 147 144 143 145 149 152 154 156 154 152 152 152 152 156 157 157 157 154 150 159 179 181 176 182 193 203 205 198 199 212 220 227 235 246 258 263 267 275 285 293 298 301 303 305 306 305 305 305 305 305 305 305 304 304 304 303 303 304 304 304 304 304 304 304 304 304 304 303 303 302 301 299 298 296
94 101 118 135 146 151 158 168 160 153 149 146 145 143 144 149 152 153 155 157 158 158 159 159 159 163 163 158 161 162 163 175 188 188 187 190 196 207 210 208 211 218 224 230 236 246 257 268 277 286 293 297 299 302 304 304 304 305 307 308 308 308 308 307 308 307 307 307 307 307 308 308 309 309 310 310 310 311 310 310 309 307 306 304 302 300
77 90 108 122 128 128 130 153 157 151 148 148 146 146 148 152 154 154 155 159 162 164 166 168 171 175 170 157 161 170 178 188 194 196 198 198 204 214 220 224 228 233 242 250 257 265 272 280 286 291 295 298 301 303 303 302 303 305 307 308 309 310 311 312 311 311 311 311 311 312 312 313 313 313 314 314 314 313 312 311 310 308 306 305 303 302
71 85 102 110 108 108 124 152 159 153 150 150 148 150 152 154 157 157 157 160 165 168 171 175 179 184 181 168 166 175 186 198 204 209 212 213 216 223 233 243 251 260 269 274 277 279 282 285 288 292 296 299 301 301 302 302 304 306 308 310 312 313 313 312 312 312 313 314 314 314 314 315 315 315 316 316 315 314 312 311 309 307 306 304 303 302
66 77 90 96 99 108 133 156 162 156 152 151 151 154 156 158 161 160 159 161 168 174 176 181 184 187 190 186 183 186 192 202 213 221 226 231 234 239 249 261 271 279 281 281 281 282 284 287 292 297 299 300 300 302 303 304 305 308 310 312 312 312 310 309 310 312 314 314 314 315 315 316 316 316 316 315 314 313 311 310 309 308 306 305 304 303
65 70 79 85 95 114 139 157 162 156 145 146 154 160 160 161 165 166 165 167 173 179 182 188 191 192 195 198 200 203 207 213 221 228 235 242 248 255 264 275 282 284 284 285 287 289 292 296 299 301 302 301 302 303 304 306 308 311 312 312 310 308 308 310 312 313 314 315 315 316 316 316 316 315 315 314 313 312 311 310 309 308 307 306 305 304
65 64 70 78 92 115 138 146 145 138 124 136 155 165 165 167 171 174 175 176 180 186 190 195 198 199 202 207 211 215 220 227 235 242 249 255 262 270 278 284 285 286 287 289 292 296 299 302 303 303 303 303 303 305 307 309 311 311 311 310 309 309 311 313 315 315 316 317 317 317 317 317 316 315 314 313 312 312 311 310 309 308 308 306 305 304
68 65 64 70 81 98 114 116 74 45 85 119 146 161 170 174 178 183 186 188 191 196 201 205 209 209 210 215 220 223 227 233 241 250 259 267 273 277 280 282 284 285 288 293 297 300 301 302 302 303 304 305 307 310 311 311 312 313 312 311 311 312 314 316 316 317 317 317 317 317 317 317 315 314 313 312 312 311 311 311 310 310 309 307 306 304
65 68 67 67 70 75 80 83 68 60 62 39 125 165 177 182 187 193 199 205 209 213 217 221 226 227 227 229 231 233 235 239 244 249 257 264 269 273 276 279 283 288 294 299 300 300 300 301 303 305 307 309 311 312 312 312 312 312 311 311 311 313 315 316 316 316 316 316 316 316 316 314 313 313 312 312 312 313 313 313 312 311 310 309 307 305
59 64 67 67 65 63 57 44 31 32 40 360 274 234 210 201 201 205 209 218 226 231 235 238 243 246 247 249 249 249 248 248 250 253 258 263 268 273 279 284 288 294 298 299 298 299 301 304 306 309 310 311 312 311 309 308 308 308 308 308 310 312 314 315 315 315 315 316 316 315 314 313 313 313 314 314 314 314 314 314 313 312 311 310 309 308
56 61 64 63 58 55 51 38 18 6 359 336 297 261 242 226 220 220 222 228 235 240 244 249 255 260 263 265 266 267 267 266 268 271 274 276 280 284 287 290 292 295 297 297 298 301 305 309 312 313 312 310 308 305 303 302 303 304 305 307 309 311 312 313 313 314 315 315 315 314 314 314 314 314 314 315 315 315 315 314 314 313 312 312 311 310
57 63 66 65 60 56 55 52 39 25 15 358 341 308 271 247 233 230 232 236 240 242 245 249 256 262 268 272 275 276 277 278 279 281 283 285 287 288 288 290 293 295 297 299 303 309 315 318 318 315 309 303 301 300 299 300 301 303 305 306 307 309 310 311 312 314 315 315 315 316 315 315 315 315 315 316 316 316 315 315 315 314 313 313 312 312
55 62 69 72 71 67 62 58 48 36 31 25 18 5 336 297 265 249 245 245 247 248 249 253 258 264 269 273 276 278 279 280 282 282 284 285 285 286 289 292 295 298 303 309 316 322 324 320 313 305 298 296 297 299 301 302 303 305 305 305 305 307 309 311 313 315 316 316 316 316 316 316 317 317 317 317 317 316 316 316 315 315 315 316 317 318
53 56 59 62 65 65 65 63 58 47 37 32 33 35 31 13 332 291 272 265 264 263 263 266 268 270 273 275 278 280 282 284 285 286 288 289 290 293 296 298 301 307 314 319 323 322 316 308 301 296 295 297 301 303 304 305 306 305 305 305 306 308 311 313 315 317 318 317 317 317 318 318 318 317 317 316 316 316 317 317 318 320 322 324 326 327
51 53 53 52 52 55 59 62 64 61 51 43 42 41 37 29 12 340 308 290 283 280 279 277 276 276 277 280 282 284 286 288 290 295 300 304 306 307 307 308 312 315 316 316 314 310 305 301 299 299 302 306 309 309 309 309 309 309 309 310 311 312 314 317 318 318 317 317 317 317 317 317 317 316 317 317 319 320 321 323 326 329 331 332 333 333
48 50 51 50 46 45 47 49 48 48 44 40 38 35 29 25 14 357 341 322 306 298 293 289 288 288 289 291 294 296 300 307 312 314 314 314 312 310 308 309 309 308 307 306 305 304 302 302 303 307 310 311 311 311 313 314 315 315 315 315 315 316 318 318 317 316 315 316 316 317 317 317 318 319 320 322 324 326 329 331 334 335 335 336 336 335
47 49 50 50 48 44 41 39 37 33 28 26 29 25 16 6 355 342 333 326 318 312 310 310 308 307 306 305 307 310 314 319 316 309 307 306 303 302 302 301 301 302 304 305 306 307 308 308 309 310 310 309 312 316 319 321 320 319 318 318 318 319 318 316 315 315 315 317 318 319 319 320 322 325 327 329 332 334 336 337 337 337 337 337 337 336
43 47 47 48 49 47 41 37 36 30 17 13 20 17 2 350 341 333 326 319 313 307 305 303 301 301 300 300 303 303 303 304 301 297 298 297 295 295 295 296 298 302 304 305 306 308 310 310 310 309 310 314 320 325 325 323 321 320 320 320 320 318 316 315 315 317 318 319 320 322 324 327 330 334 336 337 338 339 339 339 339 339 339 339 338 338
35 40 42 42 45 45 41 33 25 15 355 347 355 351 336 327 323 319 314 308 302 299 299 298 297 297 297 298 299 298 297 297 293 290 290 289 290 292 293 296 300 302 302 303 305 309 313 313 313 316 322 326 328 327 324 322 322 323 322 321 319 317 317 317 318 320 321 323 325 328 333 337 339 340 340 341 341 341 340 340 340 341 341 341 342 343
28 32 35 34 34 34 33 26 17 9 1 359 3 359 340 326 320 311 302 297 295 296 298 299 299 299 299 298 297 298 299 299 297 295 293 293 294 296 298 301 303 304 305 307 312 316 317 317 320 325 329 328 327 325 325 325 325 324 322 319 319 319 319 320 322 324 325 329 333 338 341 342 341 341 341 341 341 340 340 341 342 342 343 344 346 347
25 27 28 27 26 24 22 18 16 16 15 14 16 17 10 358 348 338 328 318 314 313 309 304 300 298 296 294 292 294 297 298 299 299 299 299 300 301 303 305 306 308 310 313 315 317 318 321 325 328 328 327 327 329 328 327 325 322 321 320 320 321 322 324 326 328 332 338 342 343 343 341 340 339 339 339 339 339 339 340 341 343 344 346 347 348
24 25 25 22 22 22 19 15 15 17 17 14 12 12 11 9 8 4 359 350 340 333 324 313 305 300 296 292 291 293 294 294 296 297 298 299 300 302 304 305 307 309 312 313 315 317 322 326 328 327 328 330 332 331 327 324 322 322 322 322 323 325 327 328 331 335 340 344 344 342 340 338 337 337 336 336 337 337 338 339 341 342 344 346 348 349
24 25 24 20 19 20 20 17 16 17 16 13 10 8 7 9 11 11 11 10 4 354 339 322 312 308 304 299 297 299 298 297 297 299 300 301 303 305 306 308 311 313 314 315 316 322 328 329 328 329 332 334 331 327 324 323 323 323 324 325 327 330 331 334 338 342 344 342 340 338 337 336 335 334 334 334 335 336 337 338 340 342 344 346 347 348
23 24 24 21 19 20 21 19 18 18 17 15 12 10 9 9 10 11 14 17 17 14 3 343 329 325 320 311 307 306 306 306 308 309 311 313 314 315 316 318 319 320 319 318 321 328 331 330 332 334 333 330 326 324 323 324 325 326 328 331 334 336 340 343 346 345 341 338 336 335 334 333 333 333 333 333 333 334 336 338 339 341 343 344 346 347
22 23 23 21 19 20 20 18 19 19 19 18 16 14 12 10 9 9 11 15 17 17 13 1 349 343 339 332 324 320 318 323 329 334 336 336 334 332 329 328 327 325 324 325 329 333 334 334 335 333 329 326 324 324 325 326 329 333 337 341 344 347 350 351 349 345 341 338 337 335 335 334 333 333 332 332 332 333 335 337 339 340 341 342 343 344
21 22 23 22 21 20 18 16 17 18 18 20 18 13 11 9 8 8 10 12 13 13 10 6 0 356 351 348 344 339 337 342 348 351 351 351 349 344 339 334 333 334 336 337 337 338 338 337 333 328 325 325 325 326 329 333 338 343 347 350 352 354 355 353 350 347 345 342 341 340 339 338 337 336 335 334 334 335 336 337 338 339 340 340 341 342
20 20 22 23 23 20 17 15 15 15 15 18 19 14 9 7 7 8 10 13 13 12 9 7 8 7 2 356 352 351 352 354 354 353 354 355 354 350 347 347 347 348 346 343 340 339 337 333 327 325 326 327 329 331 335 340 345 350 353 354 355 356 355 353 352 350 348 346 345 344 343 342 341 339 338 337 337 337 337 337 338 338 338 339 339 340
19 19 20 22 22 20 16 14 15 14 13 18 23 20 16 16 14 13 16 19 20 20 15 10 11 14 10 6 6 5 3 360 356 355 357 358 358 358 358 358 356 352 348 343 340 336 333 329 327 329 330 332 334 336 339 344 349 352 354 355 355 355 353 352 351 350 349 348 347 346 345 344 342 341 340 340 339 339 339 338 338 338 338 338 338 338
18 19 20 21 21 19 17 16 16 15 16 22 29 30 28 28 27 26 26 27 30 32 29 21 19 19 18 19 21 20 17 12 9 8 9 8 7 6 5 1 357 352 346 341 337 334 333 335 336 336 336 337 338 339 343 347 350 352 353 354 354 353 352 350 350 349 349 349 348 347 346 344 343 342 341 341 340 340 339 339 338 338 337 337 336 337
15 18 19 20 19 18 19 22 21 19 20 26 33 37 39 37 35 35 34 33 36 41 44 41 36 34 32 31 32 31 28 25 24 22 20 17 14 10 6 1 357 352 347 344 343 343 343 343 340 339 339 339 340 341 344 347 349 351 351 351 351 351 350 349 349 349 349 349 348 347 346 345 344 343 342 341 341 340 340 339 338 338 337 336 336 336
13 15 16 17 17 17 20 25 26 23 24 28 34 41 44 43 40 37 35 34 36 40 45 48 47 47 45 43 41 40 37 34 32 30 27 24 19 15 11 7 3 359 357 354 352 350 347 343 341 341 341 341 342 343 346 347 348 349 349 349 349 349 349 349 348 348 348 348 347 347 346 346 344 343 342 341 341 340 340 339 338 337 337 336 336 337
10 12 12 14 15 15 18 24 27 27 29 30 34 41 46 47 45 43 40 38 37 39 42 45 46 47 48 48 48 47 45 42 39 36 34 32 27 22 17 12 7 3 359 355 351 348 346 344 343 343 343 343 344 346 346 346 346 347 347 347 347 347 347 347 348 347 347 347 347 347 346 346 345 344 343 342 341 341 340 339 338 337 337 336 337 337
8 9 9 12 14 13 16 23 28 31 34 36 38 44 49 52 53 51 48 45 43 43 45 46 47 48 48 49 48 48 46 43 40 36 34 31 25 19 14 10 5 1 357 353 350 348 347 346 346 345 345 346 346 346 346 345 345 345 345 344 344 344 345 345 346 346 346 346 346 346 346 345 345 345 344 344 343 342 341 340 339 338 337 337 336 336
4 7 8 10 11 10 13 22 29 34 38 43 47 51 54 55 56 56 55 53 50 49 49 49 48 48 46 44 42 41 39 36 32 29 26 23 20 15 10 7 3 360 357 353 350 349 348 348 348 347 347 347 347 346 346 345 344 343 342 342 341 342 342 343 344 345 345 345 345 345 345 345 345 345 345 345 344 343 342 341 340 339 339 338 337 336
1 5 6 7 9 8 10 20 31 36 41 51 58 61 59 56 57 59 60 59 55 51 48 46 45 44 42 39 36 33 32 29 25 22 20 19 16 12 8 5 2 359 356 353 351 350 349 349 349 348 348 348 347 347 346 344 343 341 340 340 340 340 341 342 342 343 343 344 344 344 344 344 345 345 345 345 345 344 343 343 342 341 340 339 338 337
356 0 2 4 6 8 9 18 33 39 44 56 65 65 61 58 57 57 57 57 54 49 44 39 37 36 35 33 31 29 26 23 19 17 16 14 11 9 6 3 0 358 355 353 351 350 349 349 349 349 349 348 348 347 346 344 341 340 339 339 339 340 340 340 340 340 341 342 342 343 343 343 344 344 345 345 345 344 343 343 342 342 341 340 338 337
351 355 358 359 2 8 11 18 34 43 46 55 64 66 66 64 60 57 54 51 48 44 41 37 34 32 29 27 25 22 19 18 16 13 11 9 6 4 3 1 358 356 354 352 350 349 349 349 349 349 349 348 348 347 346 343 341 339 338 339 339 339 339 339 338 339 340 340 341 341 341 342 343 343 344 344 344 343 343 342 342 342 341 341 339 337
344 349 353 355 357 2 9 20 34 41 41 43 51 59 64 66 64 59 54 50 47 43 39 36 33 29 25 21 18 17 15 14 12 8 6 4 3 1 359 357 355 353 351 350 349 348 348 348 349 349 349 348 348 347 345 343 340 339 338 338 339 339 339 339 339 338 338 339 339 339 340 341 342 342 343 343 343 343 342 341 341 341 341 340 339 337
339 343 347 351 352 354 1 19 36 36 29 29 37 46 52 54 53 51 47 44 44 43 39 35 30 24 19 16 13 12 11 10 9 6 3 2 1 359 356 353 352 350 349 348 347 347 347 348 349 349 349 348 348 347 345 342 340 339 338 338 339 339 339 339 338 337 337 337 338 338 339 339 340 341 342 342 342 342 341 341 340 340 340 339 338 337
334 337 340 344 347 346 351 12 40 39 13 3 16 27 31 35 33 30 30 29 31 34 34 31 25 18 14 11 7 6 5 5 5 4 2 360 358 356 353 351 350 350 349 348 348 348 349 349 349 349 349 348 347 346 344 342 340 339 339 338 339 339 338 337 337 336 337 337 337 337 338 338 339 340 341 341 341 340 340 340 340 339 339 338 337 336
329 330 332 335 339 340 340 353 29 50 348 322 325 324 336 7 16 13 13 15 15 17 18 19 16 11 8 7 4 2 1 1 2 1 359 357 355 353 352 350 350 350 350 349 349 349 349 349 349 348 348 347 346 345 344 342 340 339 338 338 337 337 336 336 336 336 337 337 336 336 336 337 338 339 339 339 339 339 339 339 339 338 337 336 335 335
322 324 324 326 329 331 329 328 336 347 301 294 296 294 297 326 355 359 2 6 7 6 6 6 5 3 1 1 0 359 358 358 358 358 357 355 353 352 351 350 350 351 350 350 350 350 350 350 350 350 348 347 346 345 343 341 339 338 337 336 336 336 336 336 336 336 336 336 335 335 336 337 338 338 338 338 339 339 339 338 338 337 336 335 334 333
315 317 316 316 318 319 316 309 299 292 292 293 295 294 295 309 336 348 353 357 359 358 357 357 357 356 356 356 356 356 355 355 355 355 354 353 351 351 350 350 350 350 350 350 351 352 353 353 353 352 351 348 347 345 343 341 339 338 337 336 336 336 336 335 335 335 335 334 334 335 336 337 337 337 337 338 338 338 337 337 336 335 334 333 333 332
308 309 309 307 309 310 306 296 282 276 285 295 299 300 302 307 318 334 344 348 349 348 348 349 351 351 352 352 352 352 353 353 353 353 352 351 349 348 348 349 348 349 350 352 353 353 353 353 352 352 350 349 347 346 344 342 341 339 338 337 337 336 336 335 334 334 334 334 334 335 336 336 336 336 336 337 336 336 336 336 335 334 333 332 331 331
303 303 303 302 304 302 293 284 275 269 275 286 294 299 305 310 318 327 333 334 335 336 338 340 342 343 344 346 347 349 350 349 350 349 349 348 346 346 346 346 347 349 351 352 352 352 351 351 350 349 349 348 347 346 345 344 343 342 340 339 338 337 336 335 334 334 334 334 334 335 335 335 335 335 335 335 335 335 335 335 335 333 332 330 330 330
298 296 296 295 294 288 275 269 268 267 269 276 284 293 303 312 319 324 324 323 325 325 325 327 330 332 336 341 343 345 345 345 345 346 347 346 344 344 345 346 347 348 349 350 350 350 350 350 349 348 347 346 345 345 344 344 343 343 342 341 339 337 336 335 334 334 334 334 334 334 334 334 334 334 334 334 334 334 334 334 333 332 330 330 330 330
295 291 290 289 288 284 274 263 259 262 268 276 284 293 302 308 313 314 313 313 315 316 316 319 323 327 333 338 339 340 341 342 343 345 345 345 344 344 344 345 346 348 349 349 349 349 349 348 348 347 346 345 344 343 343 343 343 343 343 341 340 338 336 335 334 333 333 333 333 333 333 333 333 333 333 333 333 334 334 333 332 331 330 330 330 330
293 288 284 284 284 284 282 273 260 255 260 269 277 285 291 296 302 304 305 306 309 311 313 316 320 325 330 333 335 337 339 341 343 344 345 345 344 343 343 344 345 347 347 347 347 346 346 346 346 345 344 343 342 342 341 341 342 342 342 341 339 337 336 334 333 333 333 333 332 332 332 332 332 332 332 333 333 333 333 332 331 330 330 330 329 329
292 287 282 281 283 283 284 282 274 263 258 261 267 274 281 287 294 298 302 305 309 310 311 313 317 322 326 329 332 335 337 339 341 343 343 343 342 341 341 342 343 344 344 344 344 344 344 344 343 343 342 341 341 340 340 340 341 341 341 340 338 336 335 334 333 332 332 332 332 332 332 332 332 332 332 333 333 333 332 331 331 330 330 330 329 328
288 285 281 281 283 284 284 284 282 278 273 271 272 276 280 286 291 297 302 307 310 311 311 312 315 318 322 325 328 330 333 335 337 338 339 339 338 338 337 338 339 340 341 341 341 341 341 341 341 340 339 339 339 339 340 340 340 339 339 338 337 336 335 334 333 332 331 331 331 331 331 331 332 332 332 332 332 332 332 331 331 331 331 330 329 328
282 278 274 274 276 276 276 276 276 276 276 277 278 279 282 287 293 297 302 307 311 312 312 313 315 318 321 323 325 327 328 330 331 333 334 334 334 334 334 334 336 337 338 339 339 339 339 339 339 338 337 337 338 339 339 338 337 337 337 336 336 335 334 333 332 332 331 331 331 331 332 332 332 332 332 332 332 332 332 332 332 331 330 329 329 328
Height
10625 10627 10628 10630 10632 10633 10635 10636 10637 10638 10639 10641 10643 10645 10646 10648 10650 10653 10655 10658 10661 10663 10665 10667 10669 10670 10671 10672 10674 10675 10675 10676 10677 10679 10682 10684 10685 10686 10686 10686 10687 10687 10686 10686 10687 10687 10687 10687 10687 10687 10686 10685 10684 10683 10682 10681 10680 10680 10679 10678 10677 10676 10674 10673 10672 10670 10669 10667 10666 10664 10662 10660 10658 10656 10654 10652 10650 10648 10646 10644 10642 10640 10638 10635 10633 10631
10627 10629 10630 10631 10633 10635 10637 10638 10639 10641 10642 10644 10646 10648 10650 10651 10653 10655 10657 10660 10663 10665 10667 10668 10670 10672 10673 10674 10675 10675 10675 10676 10678 10681 10683 10684 10685 10686 10686 10687 10687 10688 10688 10688 10688 10688 10688 10688 10687 10686 10685 10684 10683 10682 10681 10680 10678 10677 10676 10675 10673 10672 10671 10670 10668 10667 10666 10664 10662 10661 10659 10657 10655 10653 10651 10649 10647 10645 10643 10641 10638 10636 10634 10632 10629 10627
10629 10631 10632 10633 10634 10636 10639 10641 10642 10643 10645 10647 10649 10651 10653 10654 10656 10657 10659 10662 10664 10666 10668 10670 10672 10673 10674 10675 10676 10677 10677 10677 10679 10681 10683 10683 10684 10685 10685 10686 10687 10688 10688 10688 10689 10688 10688 10687 10686 10685 10684 10683 10682 10681 10680 10679 10677 10676 10674 10673 10671 10669 10668 10666 10665 10664 10662 10661 10659 10658 10656 10654 10653 10651 10649 10647 10644 10642 10640 10637 10635 10633 10631 10628 10626 10623
10632 10633 10634 10635 10636 10638 10641 10644 10645 10646 10648 10650 10652 10654 10655 10657 10659 10660 10662 10664 10666 10667 10669 10671 10673 10674 10675 10676 10677 10678 10678 10678 10679 10681 10681 10681 10682 10683 10684 10685 10685 10686 10686 10687 10687 10687 10687 10686 10685 10684 10683 10682 10681 10680 10679 10678 10677 10675 10673 10671 10669 10667 10666 10664 10663 10661 10660 10658 10657 10656 10654 10653 10651 10648 10646 10644 10641 10639 10636 10634 10631 10629 10626 10624 10621 10619
10635 10636 10637 10638 10639 10641 10644 10646 10648 10649 10651 10654 10655 10657 10658 10660 10661 10663 10665 10667 10668 10669 10671 10672 10674 10675 10676 10677 10678 10679 10679 10680 10680 10680 10680 10679 10680 10681 10682 10683 10683 10684 10685 10685 10685 10685 10685 10685 10684 10683 10682 10681 10680 10679 10678 10676 10675 10673 10671 10669 10667 10666 10665 10663 10662 10660 10658 10657 10655 10654 10652 10651 10648 10646 10643 10641 10638 10636 10633 10630 10628 10625 10622 10620 10617 10614
10639 10639 10640 10641 10642 10644 10647 10649 10651 10653 10656 10658 10659 10659 10660 10662 10664 10666 10667 10669 10670 10671 10672 10673 10675 10676 10677 10678 10679 10679 10680 10680 10680 10680 10679 10679 10679 10680 10681 10682 10683 10683 10684 10684 10684 10684 10683 10683 10681 10680 10679 10678 10677 10676 10675 10674 10672 10670 10669 10667 10666 10665 10664 10662 10660 10659 10657 10655 10654 10652 10650 10648 10645 10643 10640 10637 10634 10632 10629 10626 10623 10621 10618 10615 10612 10608
10642 10642 10643 10644 10646 10647 10650 10651 10653 10656 10659 10661 10662 10662 10663 10665 10666 10668 10669 10670 10672 10672 10673 10674 10675 10677 10678 10678 10679 10680 10680 10681 10680 10680 10679 10679 10680 10680 10681 10682 10683 10683 10683 10683 10682 10682 10681 10679 10678 10676 10675 10675 10674 10673 10672 10670 10669 10667 10666 10665 10664 10663 10662 10660 10659 10657 10656 10654 10652 10649 10647 10645 10642 10639 10636 10633 10630 10627 10624 10622 10619 10616 10613 10610 10606 10602
10645 10646 10647 10648 10650 10651 10653 10654 10656 10658 10660 10662 10664 10665 10666 10667 10668 10669 10671 10672 10673 10674 10674 10675 10676 10677 10678 10679 10679 10680 10681 10681 10681 10681 10680 10680 10681 10681 10682 10682 10682 10682 10681 10681 10680 10679 10677 10676 10674 10673 10673 10672 10671 10669 10667 10666 10665 10664 10664 10663 10662 10661 10660 10659 10657 10656 10654 10652 10649 10647 10644 10641 10638 10635 10632 10630 10627 10624 10621 10617 10614 10610 10607 10604 10600 10596
10648 10649 10651 10652 10654 10655 10656 10657 10658 10660 10661 10662 10664 10666 10667 10669 10670 10671 10672 10673 10673 10674 10675 10675 10676 10677 10677 10678 10679 10680 10681 10681 10681 10681 10681 10681 10681 10681 10681 10682 10681 10680 10679 10678 10677 10676 10674 10673 10672 10671 10669 10668 10667 10666 10664 10663 10662 10662 10661 10661 10660 10659 10658 10657 10655 10654 10652 10649 10646 10644 10641 10638 10635 10632 10629 10626 10623 10619 10616 10612 10608 10604 10600 10597 10593 10589
10653 10653 10654 10656 10657 10658 10659 10660 10660 10661 10662 10663 10664 10666 10668 10669 10670 10671 10672 10673 10673 10674 10674 10675 10675 10676 10676 10677 10678 10679 10680 10680 10681 10681 10681 10681 10681 10681 10681 10680 10679 10678 10677 10676 10674 10672 10671 10670 10669 10668 10666 10665 10664 10663 10662 10661 10661 10661 10660 10659 10658 10657 10656 10655 10653 10651 10649 10646 10643 10640 10637 10634 10631 10628 10625 10622 10618 10614 10610 10606 10602 10597 10593 10590 10586 10582
10658 10658 10658 10659 10660 10660 10661 10661 10662 10662 10663 10664 10664 10666 10667 10669 10670 10671 10672 10672 10673 10673 10674 10674 10674 10674 10674 10675 10676 10677 10677 10678 10679 10679 10679 10679 10679 10679 10678 10677 10676 10675 10674 10673 10671 10669 10668 10667 10666 10665 10664 10664 10663 10663 10662 10661 10661 10661 10660 10658 10657 10656 10654 10653 10651 10649 10646 10643 10640 10637 10633 10631 10628 10625 10621 10617 10613 10609 10604 10600 10596 10592 10587 10583 10580 10576
10664 10663 10662 10663 10663 10664 10663 10663 10663 10663 10663 10664 10664 10665 10666 10667 10669 10670 10671 10671 10672 10672 10673 10673 10673 10672 10672 10672 10673 10674 10675 10676 10677 10677 10677 10677 10676 10676 10675 10674 10673 10673 10671 10670 10669 10668 10667 10666 10665 10665 10664 10664 10664 10663 10663 10662 10661 10660 10659 10657 10655 10654 10652 10651 10649 10646 10643 10640 10636 10633 10630 10627 10624 10620 10616 10612 10608 10603 10599 10595 10591 10587 10583 10579 10575 10571
10669 10667 10667 10667 10667 10667 10666 10665 10665 10665 10664 10665 10665 10665 10666 10667 10667 10668 10669 10670 10671 10671 10671 10671 10671 10671 10671 10670 10670 10671 10672 10673 10673 10674 10674 10674 10673 10673 10672 10672 10671 10670 10669 10668 10667 10667 10666 10666 10666 10666 10665 10664 10664 10664 10662 10661 10660 10658 10656 10654 10653 10651 10650 10648 10646 10643 10640 10636 10633 10630 10627 10623 10619 10615 10611 10607 10603 10599 10595 10592 10587 10583 10579 10574 10570 10565
10672 10670 10669 10669 10668 10668 10667 10666 10666 10666 10666 10666 10666 10666 10666 10666 10667 10667 10668 10669 10669 10669 10669 10669 10669 10669 10669 10669 10668 10668 10669 10669 10670 10670 10670 10670 10670 10669 10669 10669 10668 10668 10667 10667 10667 10667 10667 10667 10667 10666 10665 10664 10663 10662 10661 10659 10658 10656 10654 10652 10651 10649 10647 10645 10642 10639 10636 10633 10630 10626 10622 10618 10614 10610 10607 10603 10600 10596 10592 10588 10583 10578 10573 10568 10563 10558
10673 10672 10671 10670 10669 10669 10668 10668 10668 10668 10668 10668 10667 10667 10667 10667 10667 10667 10668 10668 10668 10668 10668 10668 10668 10668 10668 10667 10667 10667 10667 10667 10667 10667 10667 10667 10667 10667 10667 10667 10666 10666 10666 10666 10667 10667 10667 10667 10666 10665 10663 10662 10661 10660 10659 10657 10655 10653 10652 10650 10648 10647 10645 10642 10639 10636 10633 10629 10626 10622 10618 10615 10611 10607 10604 10600 10595 10591 10587 10582 10577 10572 10567 10562 10557 10552
10675 10673 10672 10671 10671 10670 10669 10669 10669 10668 10668 10668 10668 10668 10668 10668 10668 10668 10668 10667 10668 10668 10668 10668 10668 10667 10667 10667 10666 10666 10666 10666 10666 10666 10665 10666 10666 10666 10665 10665 10665 10665 10665 10666 10666 10667 10666 10665 10664 10663 10661 10660 10659 10658 10656 10654 10652 10651 10649 10648 10646 10644 10642 10639 10637 10634 10630 10627 10623 10619 10615 10611 10607 10603 10599 10595 10590 10586 10581 10576 10570 10566 10561 10556 10552 10547
10676 10675 10674 10673 10672 10671 10671 10670 10669 10669 10669 10669 10669 10669 10669 10669 10668 10668 10668 10667 10667 10667 10667 10667 10667 10666 10666 10666 10666 10665 10666 10666 10665 10665 10665 10665 10665 10665 10665 10664 10664 10664 10664 10664 10664 10665 10664 10663 10662 10661 10660 10659 10657 10656 10654 10652 10650 10649 10647 10646 10644 10642 10640 10637 10634 10631 10627 10623 10619 10615 10611 10607 10602 10598 10594 10590 10585 10580 10575 10571 10566 10561 10557 10553 10549 10544
10678 10677 10676 10675 10673 10673 10673 10672 10671 10670 10670 10670 10670 10670 10670 10669 10669 10668 10668 10667 10667 10666 10666 10666 10665 10665 10665 10664 10664 10664 10665 10665 10665 10665 10665 10665 10665 10665 10664 10664 10663 10663 10662 10662 10663 10663 10663 10661 10660 10659 10658 10657 10655 10653 10652 10650 10649 10648 10646 10645 10643 10640 10638 10635 10631 10627 10623 10619 10615 10611 10607 10603 10598 10594 10589 10585 10580 10576 10572 10568 10564 10559 10555 10550 10546 10541
10679 10678 10677 10676 10675 10675 10674 10673 10672 10672 10671 10671 10670 10670 10670 10669 10669 10668 10668 10667 10667 10666 10666 10665 10665 10664 10664 10663 10663 10662 10663 10663 10664 10664 10664 10664 10664 10664 10663 10663 10662 10662 10661 10661 10661 10661 10660 10659 10657 10656 10655 10654 10653 10651 10650 10649 10648 10646 10644 10642 10640 10637 10634 10630 10627 10623 10619 10615 10611 10607 10603 10599 10595 10590 10586 10582 10578 10574 10570 10566 10562 10558 10553 10548 10543 10538
10680 10679 10678 10678 10677 10676 10675 10674 10673 10672 10672 10671 10671 10670 10670 10669 10669 10668 10668 10667 10666 10666 10665 10665 10664 10663 10663 10662 10661 10661 10660 10661 10661 10662 10662 10662 10662 10661 10661 10661 10661 10660 10659 10659 10658 10658 10657 10656 10655 10654 10653 10652 10651 10650 10649 10648 10646 10644 10642 10639 10637 10634 10630 10626 10622 10619 10616 10612 10609 10605 10600 10596 10592 10588 10585 10581 10577 10573 10569 10565 10560 10555 10550 10545 10539 10534
10681 10679 10679 10678 10677 10676 10675 10674 10673 10672 10672 10671 10670 10670 10669 10669 10668 10668 10667 10667 10666 10665 10665 10664 10664 10663 10662 10661 10660 10660 10660 10659 10659 10659 10659 10659 10659 10658 10658 10658 10658 10658 10657 10656 10656 10655 10655 10654 10653 10653 10652 10651 10650 10649 10647 10646 10644 10642 10639 10637 10634 10630 10627 10623 10620 10617 10613 10610 10606 10603 10599 10596 10592 10588 10584 10580 10576 10572 10567 10562 10558 10552 10547 10542 10536 10531
10682 10681 10679 10679 10678 10676 10675 10674 10673 10672 10671 10670 10670 10669 10669 10669 10668 10668 10667 10666 10666 10665 10664 10664 10663 10662 10661 10660 10660 10659 10659 10659 10658 10658 10658 10657 10657 10657 10657 10657 10657 10656 10656 10655 10654 10654 10654 10653 10652 10651 10651 10650 10648 10647 10645 10644 10642 10640 10637 10634 10631 10627 10624 10621 10618 10615 10611 10608 10605 10602 10598 10595 10591 10587 10583 10579 10575 10570 10565 10560 10555 10549 10544 10538 10533 10527
10684 10682 10681 10679 10679 10677 10676 10675 10674 10673 10671 10671 10670 10669 10669 10668 10668 10667 10667 10666 10666 10665 10664 10663 10662 10662 10661 10660 10659 10659 10659 10658 10658 10658 10657 10657 10657 10657 10657 10656 10656 10655 10655 10654 10653 10653 10653 10652 10651 10650 10649 10648 10647 10646 10644 10642 10640 10637 10634 10631 10628 10626 10623 10619 10616 10612 10609 10606 10604 10600 10597 10594 10590 10586 10582 10577 10573 10568 10562 10557 10551 10546 10540 10534 10529 10524
10684 10683 10682 10681 10680 10678 10677 10675 10675 10674 10673 10672 10671 10670 10669 10668 10667 10667 10666 10666 10665 10665 10664 10663 10662 10662 10661 10660 10659 10658 10658 10658 10658 10658 10658 10657 10657 10657 10656 10656 10655 10655 10654 10653 10653 10652 10652 10651 10650 10649 10648 10647 10646 10645 10643 10641 10638 10635 10632 10630 10627 10624 10621 10617 10614 10611 10608 10605 10602 10599 10595 10591 10587 10583 10579 10574 10570 10565 10559 10554 10548 10542 10536 10531 10526 10521
10686 10684 10683 10681 10680 10678 10677 10676 10675 10675 10674 10673 10672 10671 10670 10669 10668 10667 10666 10665 10665 10665 10664 10663 10662 10662 10661 10660 10659 10659 10658 10658 10658 10658 10657 10657 10657 10656 10656 10655 10655 10655 10654 10653 10652 10652 10652 10651 10650 10649 10648 10647 10645 10644 10642 10639 10637 10634 10631 10628 10625 10622 10618 10615 10612 10609 10607 10603 10600 10596 10592 10588 10584 10580 10576 10571 10567 10562 10556 10551 10545 10539 10534 10528 10523 10518
10687 10686 10684 10683 10681 10679 10678 10677 10676 10675 10675 10674 10672 10671 10670 10669 10668 10667 10666 10666 10665 10664 10664 10663 10663 10662 10661 10660 10660 10659 10658 10658 10657 10657 10657 10656 10656 10655 10655 10655 10655 10654 10653 10653 10652 10652 10651 10650 10649 10648 10647 10646 10644 10643 10641 10638 10636 10633 10630 10626 10623 10620 10616 10614 10611 10608 10605 10601 10597 10593 10589 10585 10581 10577 10572 10568 10563 10558 10553 10547 10542 10536 10531 10525 10520 10514
10688 10687 10685 10684 10682 10680 10679 10678 10676 10675 10674 10674 10673 10672 10671 10670 10669 10668 10667 10666 10666 10665 10664 10663 10663 10662 10661 10661 10660 10659 10658 10658 10657 10657 10656 10656 10656 10655 10655 10655 10654 10654 10653 10653 10652 10651 10651 10650 10649 10648 10647 10645 10644 10642 10640 10637 10634 10631 10628 10625 10621 10618 10615 10612 10609 10606 10603 10599 10594 10590 10586 10582 10578 10573 10569 10564 10559 10554 10549 10544 10539 10533 10528 10523 10517 10512
10689 10688 10686 10684 10682 10681 10679 10678 10676 10675 10674 10674 10673 10672 10671 10670 10669 10668 10667 10667 10666 10665 10664 10663 10663 10662 10662 10661 10661 10660 10659 10658 10657 10657 10657 10656 10656 10656 10655 10655 10654 10654 10654 10653 10652 10651 10651 10651 10649 10648 10647 10645 10643 10641 10638 10635 10632 10629 10626 10623 10619 10616 10613 10610 10607 10604 10600 10596 10591 10587 10583 10578 10574 10570 10565 10561 10556 10550 10545 10540 10535 10530 10525 10519 10514 10509
10690 10688 10686 10684 10683 10681 10680 10679 10677 10676 10675 10674 10674 10673 10671 10670 10669 10669 10668 10667 10666 10666 10665 10664 10663 10663 10662 10662 10661 10661 10660 10659 10658 10658 10657 10657 10656 10656 10655 10655 10655 10654 10654 10653 10652 10652 10651 10650 10649 10647 10646 10644 10641 10639 10636 10633 10630 10627 10624 10620 10617 10614 10611 10607 10604 10600 10596 10592 10588 10584 10580 10575 10571 10567 10562 10557 10552 10547 10542 10537 10532 10526 10521 10516 10510 10505
10690 10688 10686 10685 10683 10682 10681 10680 10678 10677 10675 10675 10674 10673 10672 10671 10670 10669 10668 10667 10667 10667 10666 10666 10665 10664 10663 10663 10662 10662 10661 10660 10659 10659 10658 10657 10657 10656 10656 10656 10655 10655 10655 10654 10653 10652 10651 10649 10648 10646 10644 10642 10639 10636 10633 10630 10627 10624 10620 10617 10614 10611 10607 10604 10600 10596 10592 10588 10585 10581 10577 10573 10568 10563 10558 10554 10548 10543 10538 10533 10527 10522 10517 10511 10505 10499
10690 10688 10686 10685 10684 10683 10682 10680 10678 10677 10676 10675 10674 10674 10673 10671 10670 10669 10669 10668 10668 10667 10667 10666 10666 10665 10664 10664 10663 10663 10662 10661 10660 10660 10659 10659 10658 10658 10657 10657 10656 10656 10655 10654 10653 10652 10650 10648 10646 10644 10642 10639 10636 10633 10630 10626 10623 10620 10617 10614 10611 10607 10603 10600 10596 10592 10588 10585 10582 10578 10574 10569 10565 10560 10555 10550 10544 10539 10534 10529 10523 10518 10512 10506 10500 10493
10690 10688 10687 10685 10684 10682 10681 10680 10679 10678 10676 10675 10675 10674 10673 10673 10672 10671 10670 10669 10668 10668 10667 10667 10666 10665 10665 10665 10664 10664 10663 10662 10662 10661 10661 10660 10660 10659 10659 10658 10657 10656 10655 10654 10653 10651 10649 10647 10645 10642 10639 10636 10633 10629 10626 10622 10619 10616 10613 10610 10607 10604 10600 10597 10593 10590 10586 10582 10578 10574 10570 10565 10561 10556 10551 10546 10540 10535 10530 10524 10519 10514 10507 10501 10494 10487
10690 10689 10687 10685 10684 10682 10682 10681 10680 10679 10678 10677 10676 10675 10675 10675 10674 10673 10672 10671 10670 10669 10668 10668 10667 10666 10666 10665 10665 10664 10664 10663 10663 10662 10662 10662 10661 10660 10659 10658 10657 10656 10655 10653 10652 10650 10648 10646 10643 10640 10637 10633 10630 10626 10623 10620 10616 10613 10610 10607 10604 10601 10598 10595 10591 10587 10583 10578 10574 10569 10565 10561 10556 10552 10547 10541 10535 10530 10525 10519 10514 10509 10502 10495 10489 10482
10691 10689 10687 10685 10684 10683 10683 10682 10681 10680 10679 10678 10677 10677 10676 10676 10676 10675 10674 10673 10671 10671 10670 10669 10669 10668 10667 10666 10666 10665 10665 10664 10664 10663 10663 10662 10661 10661 10660 10659 10657 10656 10654 10653 10651 10649 10646 10644 10641 10638 10634 10631 10628 10625 10621 10618 10615 10611 10608 10605 10602 10599 10595 10591 10587 10583 10579 10574 10570 10566 10561 10557 10552 10547 10541 10536 10530 10524 10519 10513 10507 10501 10495 10488 10481 10474
10691 10690 10688 10687 10686 10684 10683 10683 10682 10681 10680 10680 10679 10678 10678 10677 10677 10676 10675 10674 10673 10672 10672 10671 10670 10669 10669 10668 10668 10667 10667 10666 10666 10665 10664 10663 10662 10661 10660 10658 10657 10655 10653 10651 10649 10646 10644 10641 10638 10636 10633 10630 10626 10623 10620 10616 10613 10610 10607 10603 10600 10596 10592 10587 10583 10579 10575 10571 10566 10562 10557 10552 10547 10542 10536 10530 10524 10518 10512 10506 10500 10493 10488 10481 10474 10468
10692 10691 10689 10688 10687 10686 10684 10683 10682 10682 10682 10681 10680 10680 10679 10678 10678 10677 10676 10675 10674 10674 10673 10673 10672 10671 10670 10670 10669 10669 10668 10668 10666 10665 10664 10663 10662 10661 10660 10658 10656 10654 10652 10649 10647 10644 10642 10639 10636 10633 10630 10627 10624 10621 10618 10615 10611 10608 10605 10601 10597 10592 10588 10584 10580 10576 10571 10567 10562 10557 10552 10547 10541 10536 10530 10524 10517 10511 10505 10499 10493 10487 10481 10475 10468 10462
10692 10691 10690 10689 10687 10686 10685 10684 10683 10683 10683 10682 10682 10681 10680 10680 10679 10678 10678 10677 10676 10675 10675 10674 10673 10672 10672 10671 10671 10670 10669 10668 10666 10665 10664 10663 10662 10660 10658 10656 10654 10652 10650 10647 10645 10642 10639 10636 10634 10631 10628 10625 10622 10619 10616 10613 10609 10606 10602 10597 10594 10590 10586 10581 10577 10572 10567 10562 10557 10552 10547 10542 10536 10530 10524 10518 10512 10505 10499 10493 10486 10480 10474 10469 10462 10455
10692 10691 10690 10689 10687 10686 10686 10684 10683 10683 10683 10682 10682 10681 10681 10680 10680 10680 10679 10678 10677 10677 10676 10675 10675 10674 10673 10672 10671 10670 10669 10668 10666 10665 10664 10662 10660 10658 10656 10654 10652 10650 10648 10646 10643 10640 10638 10635 10633 10630 10627 10624 10621 10617 10614 10610 10606 10602 10598 10594 10590 10586 10581 10577 10572 10567 10562 10558 10553 10548 10543 10537 10531 10526 10519 10513 10506 10500 10493 10487 10480 10474 10467 10462 10456 10450
10691 10690 10689 10688 10687 10686 10685 10684 10683 10683 10682 10682 10682 10681 10681 10681 10680 10680 10679 10679 10679 10678 10677 10676 10675 10674 10674 10673 10671 10670 10669 10668 10666 10665 10663 10661 10659 10657 10655 10653 10651 10649 10646 10644 10641 10638 10636 10633 10630 10627 10624 10621 10617 10614 10610 10607 10603 10599 10595 10590 10586 10581 10576 10572 10568 10563 10559 10554 10548 10543 10538 10532 10526 10521 10514 10508 10502 10495 10489 10482 10475 10468 10462 10456 10451 10445
10690 10688 10688 10687 10686 10686 10685 10684 10683 10683 10683 10683 10682 10681 10681 10681 10680 10680 10679 10679 10679 10678 10677 10676 10675 10675 10674 10673 10671 10670 10669 10668 10666 10665 10663 10661 10659 10657 10655 10653 10650 10647 10644 10641 10638 10635 10632 10629 10626 10623 10620 10616 10613 10610 10606 10603 10598 10594 10590 10585 10581 10577 10572 10569 10564 10560 10554 10549 10543 10538 10532 10527 10521 10515 10509 10504 10498 10491 10484 10477 10470 10463 10457 10451 10445 10439
10689 10687 10686 10686 10686 10685 10684 10684 10683 10683 10683 10683 10683 10682 10682 10681 10680 10680 10679 10679 10678 10677 10676 10676 10675 10674 10673 10672 10671 10670 10668 10667 10666 10664 10662 10660 10658 10656 10654 10652 10649 10646 10643 10640 10637 10634 10630 10627 10624 10620 10617 10613 10610 10606 10602 10598 10593 10589 10585 10581 10577 10574 10570 10565 10560 10555 10550 10545 10539 10534 10528 10523 10517 10511 10505 10499 10492 10485 10478 10471 10465 10458 10452 10446 10440 10434
10687 10687 10685 10685 10685 10684 10684 10683 10683 10683 10683 10683 10683 10682 10682 10681 10680 10679 10679 10678 10677 10676 10676 10675 10674 10673 10672 10671 10670 10669 10667 10666 10664 10663 10661 10659 10657 10655 10653 10650 10647 10645 10642 10639 10636 10633 10630 10627 10623 10620 10616 10612 10607 10603 10599 10595 10591 10587 10583 10579 10575 10570 10566 10561 10556 10551 10546 10541 10535 10530 10524 10518 10512 10506 10500 10493 10486 10479 10472 10466 10459 10452 10447 10441 10435 10429
10686 10685 10684 10684 10683 10683 10682 10682 10682 10682 10682 10682 10682 10682 10681 10680 10680 10679 10678 10677 10676 10676 10675 10674 10673 10672 10671 10670 10669 10667 10666 10664 10662 10661 10659 10657 10655 10653 10650 10648 10646 10643 10641 10638 10635 10632 10629 10625 10622 10618 10614 10610 10606 10602 10598 10594 10589 10585 10580 10576 10571 10566 10562 10557 10552 10547 10542 10537 10531 10525 10519 10513 10507 10501 10494 10487 10481 10474 10468 10461 10454 10448 10441 10435 10430 10423
10683 10683 10683 10682 10682 10682 10681 10681 10681 10681 10681 10681 10681 10680 10680 10679 10679 10678 10677 10676 10676 10675 10674 10673 10672 10671 10670 10669 10667 10665 10664 10662 10660 10659 10657 10655 10653 10651 10649 10646 10644 10642 10639 10636 10633 10629 10626 10623 10620 10617 10613 10608 10604 10600 10595 10591 10586 10582 10577 10573 10568 10563 10559 10554 10549 10543 10538 10532 10526 10520 10514 10508 10502 10496 10489 10483 10476 10470 10463 10457 10450 10442 10435 10428 10422 10416
10681 10681 10681 10681 10680 10680 10679 10679 10680 10679 10679 10679 10679 10679 10678 10678 10677 10676 10676 10675 10675 10674 10673 10672 10671 10670 10669 10668 10666 10664 10662 10661 10659 10657 10656 10654 10652 10649 10647 10645 10642 10639 10636 10634 10631 10628 10624 10621 10618 10614 10610 10606 10602 10597 10593 10588 10583 10579 10574 10569 10565 10560 10555 10550 10544 10538 10532 10527 10521 10515 10509 10504 10497 10491 10485 10479 10472 10466 10458 10451 10444 10436 10429 10422 10416 10409
10679 10679 10679 10679 10679 10679 10678 10678 10678 10678 10678 10678 10677 10677 10677 10676 10676 10675 10674 10674 10674 10673 10672 10671 10670 10669 10668 10667 10665 10663 10661 10660 10658 10656 10654 10652 10650 10647 10645 10642 10640 10637 10634 10631 10628 10624 10620 10617 10613 10610 10606 10602 10598 10593 10589 10584 10580 10575 10571 10566 10561 10555 10550 10544 10539 10533 10527 10522 10517 10511 10506 10500 10494 10487 10481 10475 10468 10460 10452 10444 10438 10431 10424 10416 10409 10401
10678 10677 10676 10677 10677 10677 10677 10677 10676 10676 10676 10676 10675 10675 10674 10674 10674 10674 10673 10673 10672 10672 10671 10670 10669 10667 10666 10665 10663 10661 10659 10657 10656 10654 10652 10649 10647 10644 10642 10639 10636 10633 10630 10626 10623 10619 10615 10612 10608 10605 10601 10597 10593 10589 10584 10580 10576 10571 10566 10561 10555 10550 10545 10539 10534 10528 10523 10518 10513 10508 10502 10497 10491 10484 10477 10470 10462 10454 10446 10437 10430 10423 10416 10409 10401 10394
10676 10675 10675 10674 10675 10675 10675 10675 10675 10675 10674 10674 10674 10673 10673 10672 10672 10672 10672 10671 10671 10670 10669 10668 10666 10665 10664 10662 10661 10659 10657 10655 10652 10650 10648 10646 10644 10641 10638 10636 10633 10629 10626 10623 10619 10616 10612 10609 10605 10601 10597 10593 10589 10585 10580 10576 10571 10566 10561 10555 10550 10545 10540 10535 10529 10524 10519 10514 10509 10504 10498 10492 10486 10480 10473 10465 10457 10449 10441 10433 10425 10416 10407 10399 10392 10386
10673 10673 10673 10672 10672 10673 10673 10673 10673 10673 10673 10673 10672 10672 10671 10671 10671 10671 10670 10670 10669 10668 10667 10666 10665 10663 10662 10660 10658 10656 10654 10652 10649 10647 10645 10643 10641 10638 10636 10633 10630 10628 10625 10621 10618 10614 10611 10607 10603 10599 10595 10590 10586 10582 10577 10572 10567 10562 10557 10552 10547 10541 10536 10531 10525 10520 10516 10511 10505 10499 10493 10487 10481 10474 10467 10459 10451 10442 10434 10426 10418 10409 10399 10390 10381 10374
10671 10671 10670 10670 10670 10670 10670 10670 10670 10670 10671 10671 10670 10670 10669 10669 10669 10668 10668 10668 10667 10666 10665 10664 10663 10661 10660 10658 10657 10655 10652 10650 10648 10646 10644 10641 10639 10637 10634 10632 10629 10626 10623 10620 10616 10612 10608 10604 10600 10596 10591 10587 10583 10578 10573 10568 10563 10558 10553 10548 10543 10538 10532 10527 10522 10517 10512 10507 10501 10495 10489 10482 10475 10468 10461 10453 10446 10437 10428 10418 10408 10399 10391 10382 10373 10364
10670 10670 10669 10669 10669 10669 10669 10669 10669 10668 10668 10668 10668 10668 10667 10667 10666 10666 10666 10665 10665 10664 10663 10662 10660 10659 10658 10656 10655 10653 10651 10649 10647 10645 10642 10640 10638 10635 10633 10630 10627 10624 10621 10617 10613 10609 10605 10601 10596 10592 10588 10583 10579 10574 10569 10564 10559 10555 10550 10545 10540 10534 10529 10524 10519 10513 10508 10502 10497 10491 10484 10477 10470 10463 10455 10447 10440 10432 10424 10414 10404 10393 10384 10375 10366 10356